Preston, Minnesota, United States (55965)
Lat: 43.67N, Lon: 92.08W
Wx Zone: MNZ095
Local Info
Past Weather Observations for Monday, October 27, 2014

NOTE: This archive is for the closest National Weather Service station to Preston. Information may differ from the station used for current weather conditions.

Click here for Long-term Archive

Time Weather Temperature Dewpoint Humidity Pressure Winds Precip Visibility
23:55
Clear
45°F / 7°C 39°F / 4°C 81% 29.74 in
(1007 mb)
WNW 12.7 mph
(WNW 20 kph)
- 10SM
23:36
Partly Cloudy
45°F / 7°C 41°F / 5°C 87% 29.74 in
(1007 mb)
WNW 13.8 mph
(WNW 22 kph)
- 10SM
23:15
Mostly Cloudy
46°F / 8°C 41°F / 5°C 82% 29.74 in
(1007 mb)
WNW 13.8 mph
(WNW 22 kph)
- 10SM
22:55
Overcast
46°F / 8°C 41°F / 5°C 82% 29.71 in
(1006 mb)
NW 16.1 mph
(NW 26 kph)
- 10SM
22:36
Mostly Cloudy
48°F / 9°C 41°F / 5°C 76% 29.74 in
(1007 mb)
WNW 18.4 mph
(WNW 30 kph)
- 10SM
22:15
Clear
46°F / 8°C 43°F / 6°C 87% 29.71 in
(1006 mb)
NW 16.1 mph
(NW 26 kph)
- 10SM
21:55
Clear
48°F / 9°C 43°F / 6°C 82% 29.71 in
(1006 mb)
WNW 17.3 mph
(WNW 28 kph)
- 10SM
21:36
Clear
48°F / 9°C 45°F / 7°C 87% 29.68 in
(1005 mb)
NW 16.1 mph
(NW 26 kph)
- 10SM
21:15
Clear
50°F / 10°C 45°F / 7°C 82% 29.68 in
(1005 mb)
NW 15 mph
(NW 24 kph)
- 10SM
20:55
Partly Cloudy
52°F / 11°C 45°F / 7°C 77% 29.68 in
(1005 mb)
WNW 18.4 mph
(WNW 30 kph)
- 10SM
20:35
Partly Cloudy
55°F / 13°C 45°F / 7°C 67% 29.65 in
(1004 mb)
WNW 19.6 mph
(WNW 32 kph)
- 10SM
20:15
Overcast
57°F / 14°C 45°F / 7°C 63% 29.65 in
(1004 mb)
NNW 6.9 mph
(NNW 11 kph)
- 10SM
19:55
Overcast
57°F / 14°C 45°F / 7°C 63% 29.65 in
(1004 mb)
NW 9.2 mph
(NW 15 kph)
- 10SM
19:35
Overcast
59°F / 15°C 43°F / 6°C 55% 29.65 in
(1004 mb)
NW 12.7 mph
(NW 20 kph)
- 10SM
19:15
Overcast
59°F / 15°C 43°F / 6°C 55% 29.65 in
(1004 mb)
NW 16.1 mph
(NW 26 kph)
- 10SM
18:55
Overcast
59°F / 15°C 43°F / 6°C 55% 29.62 in
(1003 mb)
NW 13.8 mph
(NW 22 kph)
- 10SM
18:35
Overcast
59°F / 15°C 45°F / 7°C 59% 29.62 in
(1003 mb)
NW 12.7 mph
(NW 20 kph)
- 10SM
18:15
Overcast
61°F / 16°C 45°F / 7°C 55% 29.62 in
(1003 mb)
NW 12.7 mph
(NW 20 kph)
- 10SM
17:55
Overcast
61°F / 16°C 45°F / 7°C 55% 29.62 in
(1003 mb)
NW 13.8 mph
(NW 22 kph)
- 10SM
17:35
Overcast
61°F / 16°C 46°F / 8°C 59% 29.59 in
(1002 mb)
NW 12.7 mph
(NW 20 kph)
- 10SM
17:15
Overcast
63°F / 17°C 50°F / 10°C 64% 29.59 in
(1002 mb)
NW 13.8 mph
(NW 22 kph)
- 10SM
16:55
Overcast
63°F / 17°C 50°F / 10°C 64% 29.59 in
(1002 mb)
NW 6.9 mph
(NW 11 kph)
- 10SM
16:35
Overcast
63°F / 17°C 52°F / 11°C 68% 29.59 in
(1002 mb)
WNW 8.1 mph
(WNW 13 kph)
- 10SM
16:15
Mostly Cloudy
63°F / 17°C 52°F / 11°C 68% 29.56 in
(1001 mb)
NW 5.8 mph
(NW 9 kph)
- 10SM
15:56
Mostly Cloudy
64°F / 18°C 54°F / 12°C 68% 29.53 in
(1000 mb)
NW 4.6 mph
(NW 7 kph)
- 10SM
15:35
Mostly Cloudy
64°F / 18°C 54°F / 12°C 68% 29.53 in
(1000 mb)
Calm - 10SM
15:15
Mostly Cloudy
64°F / 18°C 54°F / 12°C 68% 29.53 in
(1000 mb)
N 4.6 mph
(N 7 kph)
- 10SM
14:56
Mostly Cloudy
64°F / 18°C 54°F / 12°C 68% 29.53 in
(1000 mb)
Calm - 10SM
14:35
Mostly Cloudy
64°F / 18°C 54°F / 12°C 68% 29.56 in
(1001 mb)
SSW 3.5 mph
(SSW 6 kph)
- 10SM
14:15
Partly Cloudy
66°F / 19°C 54°F / 12°C 64% 29.53 in
(1000 mb)
Calm - 7SM
13:56
Partly Cloudy
64°F / 18°C 54°F / 12°C 68% 29.53 in
(1000 mb)
Calm - 10SM
13:35
Clear
64°F / 18°C 54°F / 12°C 68% 29.53 in
(1000 mb)
Calm - 10SM
13:15
Clear
64°F / 18°C 54°F / 12°C 68% 29.53 in
(1000 mb)
Calm - 10SM
12:56
Clear
64°F / 18°C 54°F / 12°C 68% 29.53 in
(1000 mb)
Calm - 10SM
12:35
Clear
64°F / 18°C 52°F / 11°C 64% 29.53 in
(1000 mb)
Calm - 7SM
12:15
Clear
64°F / 18°C 54°F / 12°C 68% 29.53 in
(1000 mb)
Calm - 7SM
11:55
Clear
64°F / 18°C 52°F / 11°C 64% 29.53 in
(1000 mb)
ESE 3.5 mph
(ESE 6 kph)
- 10SM
11:35
Clear
63°F / 17°C 52°F / 11°C 68% 29.53 in
(1000 mb)
Calm - 7SM
11:15
Clear
61°F / 16°C 52°F / 11°C 72% 29.53 in
(1000 mb)
E 3.5 mph
(E 6 kph)
- 10SM
10:55
Clear
61°F / 16°C 50°F / 10°C 68% 29.53 in
(1000 mb)
Calm - 10SM
10:35
Clear
59°F / 15°C 50°F / 10°C 72% 29.56 in
(1001 mb)
Calm - 10SM
10:15
Clear
59°F / 15°C 50°F / 10°C 72% 29.56 in
(1001 mb)
Calm - 10SM
09:55
Clear
59°F / 15°C 50°F / 10°C 72% 29.56 in
(1001 mb)
Calm - 10SM
09:35
Clear
57°F / 14°C 48°F / 9°C 72% 29.56 in
(1001 mb)
Calm - 10SM
09:15
Clear
57°F / 14°C 50°F / 10°C 77% 29.56 in
(1001 mb)
S 3.5 mph
(S 6 kph)
- 10SM
08:55
Clear
55°F / 13°C 48°F / 9°C 77% 29.56 in
(1001 mb)
Calm - 10SM
08:35
Clear
55°F / 13°C 48°F / 9°C 77% 29.56 in
(1001 mb)
Calm - 10SM
08:16
Clear
55°F / 13°C 46°F / 8°C 72% 29.56 in
(1001 mb)
Calm - 10SM
07:55
Clear
54°F / 12°C 46°F / 8°C 77% 29.56 in
(1001 mb)
Calm - 7SM
07:35
Clear
52°F / 11°C 46°F / 8°C 82% 29.56 in
(1001 mb)
Calm - 10SM
07:16
Clear
52°F / 11°C 46°F / 8°C 82% 29.56 in
(1001 mb)
Calm - 10SM
06:55
Clear
52°F / 11°C 45°F / 7°C 77% 29.56 in
(1001 mb)
Calm - 10SM
06:35
Clear
52°F / 11°C 45°F / 7°C 77% 29.56 in
(1001 mb)
Calm - 10SM
06:16
Clear
52°F / 11°C 45°F / 7°C 77% 29.56 in
(1001 mb)
Calm - 10SM
05:55
Clear
52°F / 11°C 45°F / 7°C 77% 29.56 in
(1001 mb)
S 5.8 mph
(S 9 kph)
- 10SM
05:35
Clear
52°F / 11°C 45°F / 7°C 77% 29.56 in
(1001 mb)
SSE 3.5 mph
(SSE 6 kph)
- 10SM
05:16
Clear
52°F / 11°C 45°F / 7°C 77% 29.56 in
(1001 mb)
S 4.6 mph
(S 7 kph)
- 10SM
04:55
Clear
52°F / 11°C 43°F / 6°C 72% 29.56 in
(1001 mb)
S 5.8 mph
(S 9 kph)
- 10SM
04:35
Clear
52°F / 11°C 43°F / 6°C 72% 29.56 in
(1001 mb)
SSE 5.8 mph
(SSE 9 kph)
- 10SM
04:16
Clear
52°F / 11°C 43°F / 6°C 72% 29.56 in
(1001 mb)
S 5.8 mph
(S 9 kph)
- 10SM
03:55
Clear
52°F / 11°C 43°F / 6°C 72% 29.56 in
(1001 mb)
SSE 6.9 mph
(SSE 11 kph)
- 10SM
03:36
Clear
52°F / 11°C 43°F / 6°C 72% 29.56 in
(1001 mb)
SSE 6.9 mph
(SSE 11 kph)
- 10SM
03:15
Clear
52°F / 11°C 41°F / 5°C 67% 29.56 in
(1001 mb)
SSE 5.8 mph
(SSE 9 kph)
- 10SM
02:55
Clear
54°F / 12°C 41°F / 5°C 63% 29.59 in
(1002 mb)
SSE 4.6 mph
(SSE 7 kph)
- 10SM
02:36
Clear
54°F / 12°C 41°F / 5°C 63% 29.59 in
(1002 mb)
SSE 5.8 mph
(SSE 9 kph)
- 10SM
02:15
Partly Cloudy
55°F / 13°C 39°F / 4°C 55% 29.59 in
(1002 mb)
SSE 8.1 mph
(SSE 13 kph)
- 10SM
01:55
Partly Cloudy
55°F / 13°C 39°F / 4°C 55% 29.59 in
(1002 mb)
SSE 6.9 mph
(SSE 11 kph)
- 10SM
01:36
Partly Cloudy
55°F / 13°C 39°F / 4°C 55% 29.59 in
(1002 mb)
SSE 5.8 mph
(SSE 9 kph)
- 10SM
01:15
Clear
55°F / 13°C 37°F / 3°C 51% 29.59 in
(1002 mb)
SSE 6.9 mph
(SSE 11 kph)
- 10SM
00:55
Clear
55°F / 13°C 37°F / 3°C 51% 29.62 in
(1003 mb)
SSE 6.9 mph
(SSE 11 kph)
- 10SM
00:35
Clear
55°F / 13°C 36°F / 2°C 47% 29.62 in
(1003 mb)
SSE 6.9 mph
(SSE 11 kph)
- 10SM
00:15
Clear
55°F / 13°C 36°F / 2°C 47% 29.62 in
(1003 mb)
SSE 8.1 mph
(SSE 13 kph)
- 10SM
Time Weather Temperature Dewpoint Humidity Pressure Winds Precip Visibility


Weather for websites

WeatherForYou.com, LLC is not responsible for any damages or problems caused by this service. Current weather conditions are obtained from the closest station including government and personal stations which may have varying degrees of accuracy. Weather forecasts are derived from the NOAA NDFD. Like all things, this site belongs to Jesus Christ... He just trusts me to maintain it. If you have any questions or comments email webmaster@weatherforyou.com

Copyright © 2014, WeatherForYou.com LLC. All rights reserved.